Wind_Speed
34 34 34 34 34 36 37 39 39 39 37 34 33 32 31 30 30 29 28 29 28 28 27 25 25 26 27 27 26 26 25 25 25 24 24 23 23 22 23 22 22 22 22 22
35 35 35 34 34 35 36 37 39 40 38 35 35 35 34 33 32 32 31 31 32 31 28 28 28 28 29 29 29 29 28 27 27 27 27 26 25 24 24 24 25 25 25 25
35 35 37 37 36 36 36 37 38 39 39 38 38 37 35 35 35 33 33 32 32 31 31 31 31 30 30 30 30 30 29 29 28 28 29 29 28 28 27 27 27 28 28 29
35 35 36 35 36 37 37 38 38 37 37 37 38 38 36 36 35 34 34 33 33 33 33 33 33 33 31 32 31 31 31 30 30 31 30 30 30 30 30 30 30 31 31 31
35 36 36 35 35 36 37 37 37 37 37 38 37 37 36 35 35 35 35 35 34 35 36 35 35 35 35 33 32 32 33 32 32 32 32 32 32 32 33 33 33 34 33 33
34 35 36 35 35 36 37 37 36 37 37 37 36 37 35 35 36 36 35 35 36 35 36 36 36 36 35 35 35 34 33 33 34 35 35 35 35 35 36 36 35 36 35 36
34 34 35 35 34 34 35 36 36 36 37 37 36 35 35 35 36 37 37 37 37 37 36 36 36 36 36 36 35 34 34 35 35 36 37 37 37 38 39 39 38 38 38 38
33 33 33 33 33 33 35 35 35 35 35 35 35 35 35 35 35 36 38 38 38 38 37 37 38 38 38 37 37 36 36 36 36 37 38 38 38 39 40 40 40 40 40 40
32 32 32 32 33 32 33 34 34 34 34 34 33 33 33 34 34 35 36 36 36 37 37 37 37 38 37 38 39 38 38 38 38 38 38 39 40 40 40 40 40 40 40 40
32 31 31 31 32 32 32 33 33 33 33 32 32 32 33 32 33 34 35 35 35 36 37 37 38 38 39 39 40 40 40 40 40 40 40 40 40 40 40 40 40 40 40 41
30 30 31 31 30 31 31 31 32 33 33 32 32 32 32 33 33 34 34 34 35 36 37 38 39 40 40 41 42 42 41 41 41 41 40 40 41 41 41 40 40 40 41 41
29 29 30 30 29 30 31 31 32 33 33 33 33 33 32 33 33 34 34 35 35 36 38 39 40 40 41 42 42 42 41 40 41 41 41 42 42 42 42 42 41 42 42 41
28 29 30 30 30 30 31 31 32 32 32 32 32 32 32 33 34 35 35 35 36 37 38 38 39 40 41 40 41 41 40 40 40 41 42 43 43 43 43 43 43 43 42 42
28 28 28 29 30 31 31 30 30 31 30 30 31 31 31 32 34 35 36 36 36 37 38 38 38 39 39 39 40 41 41 41 41 42 44 44 44 44 44 43 41 41 41 41
26 27 28 28 28 29 30 30 29 29 29 30 31 31 31 31 32 33 34 35 35 36 36 36 36 36 36 37 39 39 40 41 42 42 43 43 43 43 43 42 41 41 40 40
25 26 26 27 28 28 28 28 28 28 29 29 29 30 31 31 31 32 33 34 34 35 35 35 36 36 37 38 39 39 40 40 41 41 40 41 40 40 40 40 39 39 39 38
26 26 26 26 25 26 27 28 28 27 28 28 28 28 29 29 30 31 32 33 33 33 34 35 36 37 38 38 38 38 37 37 38 38 38 38 38 37 37 37 37 37 37 37
24 24 24 24 25 25 24 25 26 26 27 27 26 27 28 29 29 30 31 31 32 33 33 34 35 36 37 37 36 35 34 34 35 36 36 35 35 34 34 35 34 35 35 35
22 23 23 23 22 22 23 23 23 23 24 25 25 26 27 28 29 29 29 30 30 31 31 32 34 35 35 34 34 33 33 33 34 34 34 34 33 32 32 33 33 33 33 33
19 19 19 19 19 19 19 20 21 22 23 24 24 25 26 26 27 27 27 28 29 29 29 30 30 30 30 30 30 31 32 32 32 32 32 32 31 31 31 31 31 31 31 31
16 16 16 16 16 17 18 19 20 20 21 22 23 24 25 25 26 26 26 26 26 27 28 28 27 27 27 27 27 27 28 29 29 29 28 28 27 27 27 27 27 28 28 29
14 14 13 13 14 15 16 17 18 18 19 19 20 21 22 23 23 23 23 24 24 25 25 25 25 24 24 24 24 24 24 25 25 25 25 26 26 26 27 27 26 27 27 28
13 13 13 14 14 15 15 16 17 17 18 19 19 20 21 21 21 21 22 22 23 23 22 22 22 22 22 22 22 22 23 23 23 24 25 25 26 26 25 26 26 27 27 27
13 13 13 13 13 14 14 15 16 16 18 18 19 19 19 19 19 20 21 21 21 21 20 20 20 21 21 22 21 21 21 21 22 23 24 24 24 24 25 25 26 26 26 26
12 12 12 12 12 13 13 14 14 15 16 17 17 17 18 18 18 18 19 19 19 19 19 19 18 19 19 19 20 20 20 20 20 21 22 22 22 23 23 24 24 25 25 25
10 10 11 11 11 12 12 13 14 14 15 16 16 16 16 17 17 17 17 17 18 18 17 17 17 17 17 18 18 19 19 20 20 21 21 21 20 21 21 22 22 23 23 24
9 9 10 10 11 11 12 12 12 12 13 13 14 15 15 16 16 16 16 17 17 17 17 17 17 17 18 18 18 19 19 19 20 19 19 19 19 20 20 21 21 22 22 23
Wind_Direction
249 248 247 246 246 248 250 253 255 257 259 258 256 257 259 260 259 258 260 259 258 257 260 262 263 266 266 265 267 267 269 271 273 276 276 276 273 273 274 275 277 279 279 277
250 249 249 248 246 247 249 251 254 255 256 257 258 257 259 260 260 258 259 258 258 260 261 263 263 264 266 266 267 266 269 272 274 275 278 278 274 274 276 278 278 278 278 278
251 250 251 250 249 249 250 250 253 255 256 255 257 258 258 260 261 260 258 259 259 261 260 262 263 264 266 269 269 270 271 272 275 278 278 278 275 275 275 277 277 277 278 279
253 253 254 253 251 251 252 253 253 254 256 258 259 260 259 259 259 258 257 256 256 258 258 260 264 266 268 270 273 274 272 274 277 280 280 276 276 276 276 276 276 277 276 278
253 254 255 253 254 253 254 255 255 255 256 258 260 261 260 258 257 255 254 254 255 257 257 260 263 267 270 271 275 276 277 276 277 277 278 279 277 277 276 275 275 276 276 276
255 255 255 254 255 255 255 256 257 259 259 259 259 259 258 257 257 256 255 255 256 258 259 261 263 266 269 270 273 275 276 276 276 277 277 278 277 276 277 276 274 274 276 278
255 257 258 258 259 258 258 260 260 261 261 259 258 259 258 256 255 255 255 256 258 259 261 263 265 267 270 272 274 275 275 275 275 275 275 277 278 278 277 277 276 275 276 278
255 257 258 258 259 258 260 261 261 262 262 261 260 261 260 257 255 255 255 256 259 260 260 262 265 268 271 272 274 275 275 275 275 276 276 276 277 277 277 277 277 278 277 277
257 258 258 257 257 258 259 261 263 263 263 262 261 261 260 260 259 260 259 259 259 258 260 262 265 267 270 273 274 275 274 274 275 276 277 276 277 277 277 278 278 277 277 278
258 257 257 258 259 259 259 260 261 262 260 259 260 260 261 261 261 263 262 261 260 259 260 263 266 267 270 273 274 274 274 274 275 274 275 276 277 277 277 277 278 278 278 278
259 259 258 258 258 258 260 259 259 260 259 257 257 257 259 260 261 261 261 263 263 262 263 266 268 269 270 272 273 274 275 275 275 275 275 275 276 277 278 277 277 277 277 277
259 259 260 260 258 256 259 261 260 260 260 259 257 257 258 260 262 263 264 265 265 266 269 269 270 270 270 271 272 273 273 274 275 275 275 276 277 277 277 276 276 277 277 276
257 257 259 259 259 258 258 260 261 261 261 259 257 258 259 260 262 263 265 268 269 271 270 270 269 268 267 270 271 271 274 275 276 275 275 276 276 276 276 276 276 276 276 276
257 258 259 260 261 261 261 261 262 262 260 260 259 260 261 263 264 265 267 269 271 272 272 271 273 270 268 271 273 273 275 276 277 276 276 276 276 276 277 276 275 275 277 277
256 259 261 261 261 263 263 263 264 262 262 262 261 262 263 265 267 267 268 269 270 271 272 272 273 271 271 273 274 275 276 277 278 278 278 277 277 277 277 276 276 276 276 276
258 261 262 263 261 262 262 263 263 262 263 263 263 263 263 266 268 270 270 270 270 270 271 272 272 273 273 274 274 275 276 277 278 279 280 279 278 277 276 275 276 276 275 275
259 261 262 262 262 263 263 260 261 262 262 263 264 264 264 265 268 271 273 273 273 275 274 273 273 274 275 275 276 275 276 277 279 279 280 279 278 277 277 276 275 274 274 274
260 261 262 264 264 263 262 260 260 262 263 264 265 267 267 267 269 272 274 275 275 275 276 275 274 275 276 277 277 277 277 278 279 280 280 279 278 277 276 276 275 275 274 273
262 263 265 264 263 263 262 262 262 263 262 264 267 270 271 272 273 275 275 277 279 280 280 280 278 278 279 278 278 279 279 278 279 280 279 279 278 277 276 276 276 275 275 274
265 266 265 262 262 261 262 262 262 264 265 266 269 272 274 275 276 278 280 281 281 282 282 283 285 285 283 282 281 280 279 279 280 280 279 279 278 277 276 277 277 276 276 276
265 266 267 264 263 261 263 265 267 267 268 269 271 274 276 277 279 281 283 284 283 284 285 286 285 285 285 284 283 281 280 280 282 281 279 278 279 279 278 278 278 279 278 276
263 264 263 261 260 262 265 268 269 269 270 273 277 279 280 281 282 283 285 286 285 286 287 287 286 286 286 286 286 284 284 284 284 282 281 280 280 281 279 278 279 281 281 280
261 263 264 263 263 267 271 272 270 272 276 280 283 285 285 285 285 286 287 287 288 288 289 289 289 287 287 287 286 286 287 287 285 284 284 282 281 281 281 280 280 281 282 281
263 264 264 266 268 273 275 275 274 276 281 284 287 288 288 287 287 289 290 288 288 288 289 290 291 289 287 286 287 287 288 288 287 286 285 284 283 281 281 281 281 281 281 281
268 269 271 274 278 281 281 279 280 283 285 286 287 290 290 290 289 289 290 291 291 292 292 293 293 292 290 289 290 290 290 288 288 287 288 288 286 284 283 283 285 285 283 282
275 274 274 275 280 283 284 286 286 286 287 287 288 291 293 293 291 291 291 291 294 294 293 295 296 296 297 297 293 292 291 290 290 290 290 290 290 290 289 289 290 290 287 284
277 279 278 280 283 285 287 289 290 292 290 290 291 292 294 295 295 295 294 294 294 293 294 297 298 298 298 298 296 295 294 292 291 291 291 292 293 295 297 297 296 294 292 289
Height
5809 5812 5813 5815 5818 5820 5822 5824 5825 5828 5830 5835 5838 5840 5842 5843 5845 5847 5848 5850 5851 5852 5853 5854 5854 5854 5854 5854 5854 5854 5853 5854 5855 5854 5853 5852 5852 5853 5853 5852 5852 5852 5851 5850
5800 5803 5804 5807 5810 5812 5814 5816 5817 5819 5822 5826 5828 5830 5832 5834 5836 5838 5840 5841 5842 5843 5844 5845 5846 5846 5846 5846 5846 5846 5846 5847 5847 5847 5846 5845 5845 5845 5846 5845 5845 5845 5844 5843
5792 5794 5795 5798 5802 5803 5805 5807 5809 5810 5814 5816 5818 5821 5823 5825 5826 5828 5830 5832 5834 5835 5836 5837 5837 5837 5838 5838 5838 5838 5838 5838 5838 5838 5837 5837 5838 5838 5837 5837 5837 5837 5837 5835
5783 5785 5787 5792 5793 5794 5796 5798 5800 5802 5804 5807 5809 5810 5812 5814 5816 5818 5820 5822 5824 5826 5827 5828 5828 5829 5829 5829 5829 5830 5829 5829 5830 5830 5829 5829 5829 5829 5828 5829 5828 5827 5827 5827
5774 5776 5778 5783 5784 5785 5787 5790 5792 5793 5795 5797 5798 5800 5802 5804 5806 5807 5810 5812 5815 5816 5818 5818 5819 5820 5820 5820 5821 5821 5820 5820 5821 5821 5821 5821 5820 5820 5819 5819 5819 5818 5818 5818
5766 5767 5770 5774 5775 5776 5779 5780 5783 5784 5786 5787 5788 5790 5793 5795 5796 5797 5800 5802 5804 5806 5807 5807 5808 5809 5809 5810 5811 5811 5811 5812 5812 5812 5812 5811 5810 5810 5809 5809 5808 5808 5808 5808
5757 5758 5761 5764 5766 5767 5770 5773 5774 5775 5776 5778 5779 5780 5782 5784 5786 5788 5790 5792 5794 5796 5797 5798 5799 5799 5800 5801 5801 5801 5801 5802 5802 5801 5801 5800 5800 5800 5798 5798 5797 5797 5797 5797
5749 5751 5755 5755 5757 5759 5761 5762 5763 5765 5766 5767 5769 5770 5771 5773 5775 5777 5779 5782 5783 5785 5787 5788 5789 5789 5790 5790 5791 5791 5791 5791 5791 5790 5790 5789 5789 5789 5787 5787 5786 5786 5785 5785
5742 5745 5746 5747 5748 5750 5752 5753 5754 5756 5757 5758 5759 5761 5763 5764 5766 5767 5769 5771 5773 5775 5777 5778 5778 5779 5779 5780 5780 5780 5780 5780 5779 5779 5778 5778 5777 5776 5775 5774 5774 5773 5773 5773
5734 5735 5737 5738 5740 5741 5743 5744 5745 5746 5748 5749 5750 5752 5753 5755 5756 5758 5760 5762 5763 5764 5766 5767 5767 5767 5768 5768 5768 5768 5768 5768 5768 5767 5767 5766 5765 5764 5763 5762 5761 5761 5761 5761
5725 5727 5728 5730 5731 5732 5733 5735 5736 5737 5739 5740 5741 5743 5744 5746 5748 5750 5751 5752 5753 5754 5755 5756 5756 5756 5756 5756 5756 5756 5756 5756 5755 5754 5754 5753 5752 5751 5751 5750 5749 5749 5749 5748
5717 5719 5720 5721 5721 5723 5724 5726 5727 5728 5729 5731 5732 5734 5735 5737 5739 5740 5742 5743 5743 5744 5744 5745 5745 5744 5744 5744 5744 5744 5743 5743 5742 5742 5741 5741 5740 5739 5738 5738 5737 5736 5736 5736
5709 5710 5711 5712 5713 5714 5715 5717 5718 5719 5720 5722 5723 5725 5726 5728 5729 5731 5732 5732 5733 5733 5733 5733 5733 5733 5732 5732 5731 5731 5730 5730 5730 5729 5729 5728 5727 5726 5726 5725 5724 5723 5722 5722
5701 5702 5703 5704 5705 5706 5706 5707 5709 5710 5711 5713 5714 5715 5717 5718 5719 5720 5721 5722 5722 5722 5722 5722 5721 5721 5721 5720 5720 5719 5718 5717 5717 5716 5715 5714 5713 5713 5712 5711 5711 5710 5710 5709
5693 5694 5695 5695 5696 5697 5698 5699 5700 5702 5703 5704 5705 5707 5708 5709 5709 5710 5710 5711 5711 5711 5711 5710 5710 5710 5709 5708 5707 5706 5705 5704 5703 5702 5701 5700 5700 5699 5698 5698 5697 5697 5697 5697
5685 5686 5686 5687 5688 5689 5690 5691 5692 5694 5695 5696 5697 5698 5699 5699 5700 5700 5700 5700 5700 5700 5700 5699 5699 5698 5697 5696 5695 5694 5693 5692 5690 5689 5688 5687 5686 5685 5684 5684 5684 5684 5684 5684
5678 5678 5679 5679 5680 5681 5682 5683 5684 5685 5686 5687 5688 5689 5690 5691 5691 5691 5691 5690 5690 5689 5688 5687 5687 5686 5685 5684 5683 5682 5681 5680 5679 5677 5676 5674 5673 5672 5672 5671 5671 5672 5671 5671
5670 5671 5671 5672 5672 5673 5674 5675 5676 5677 5679 5679 5680 5681 5682 5682 5682 5682 5682 5681 5680 5679 5678 5676 5675 5674 5673 5672 5671 5670 5669 5668 5666 5665 5663 5662 5661 5661 5660 5660 5659 5659 5659 5658
5663 5663 5664 5664 5665 5666 5667 5668 5669 5670 5671 5672 5673 5674 5674 5674 5674 5673 5672 5671 5670 5669 5668 5666 5665 5663 5661 5660 5659 5658 5657 5656 5655 5653 5652 5651 5650 5649 5649 5648 5648 5648 5647 5647
5657 5657 5657 5657 5658 5659 5661 5662 5663 5664 5665 5666 5666 5666 5666 5666 5665 5664 5663 5662 5661 5659 5658 5656 5655 5653 5651 5649 5648 5647 5646 5645 5644 5642 5641 5640 5639 5638 5638 5638 5637 5637 5636 5636
5652 5652 5652 5653 5654 5655 5656 5657 5657 5658 5659 5659 5659 5659 5658 5658 5657 5656 5655 5654 5652 5651 5649 5647 5645 5644 5642 5640 5639 5638 5636 5635 5634 5632 5631 5630 5629 5629 5628 5628 5627 5627 5626 5626
5648 5648 5648 5649 5650 5650 5651 5652 5652 5652 5653 5653 5652 5652 5651 5650 5649 5648 5647 5646 5644 5642 5641 5639 5637 5635 5634 5632 5631 5629 5628 5627 5625 5624 5622 5621 5620 5620 5619 5619 5618 5618 5617 5617
5644 5644 5645 5645 5646 5646 5647 5647 5647 5647 5647 5647 5646 5645 5644 5643 5642 5641 5640 5639 5637 5635 5633 5632 5630 5628 5626 5625 5623 5622 5620 5619 5617 5616 5615 5613 5612 5611 5611 5610 5610 5610 5609 5608
5640 5640 5641 5641 5642 5642 5642 5643 5642 5642 5642 5641 5641 5639 5638 5637 5636 5635 5633 5631 5630 5628 5626 5625 5623 5621 5620 5618 5617 5615 5613 5612 5610 5609 5607 5606 5605 5604 5604 5603 5602 5601 5600 5599
5637 5637 5638 5638 5638 5638 5638 5638 5638 5638 5637 5636 5635 5634 5633 5631 5630 5629 5627 5625 5624 5622 5621 5619 5617 5615 5614 5612 5610 5609 5607 5605 5604 5602 5601 5600 5598 5597 5597 5596 5594 5593 5592 5591
5634 5634 5634 5635 5635 5635 5634 5634 5634 5633 5632 5632 5631 5629 5628 5626 5625 5623 5622 5620 5618 5617 5615 5614 5612 5611 5609 5607 5605 5604 5602 5600 5599 5597 5596 5594 5592 5591 5590 5589 5587 5586 5584 5583
5632 5632 5632 5632 5632 5631 5631 5630 5630 5629 5628 5627 5626 5625 5623 5622 5620 5619 5617 5616 5614 5613 5611 5610 5608 5606 5604 5602 5600 5599 5597 5595 5593 5592 5590 5589 5587 5586 5584 5583 5581 5580 5578 5577